Time,TemperatureF,DewpointF,PressureIn,WindDirection,WindDirectionDegrees,WindSpeedMPH,WindSpeedGustMPH,Humidity,HourlyPrecipIn,Conditions,Clouds,dailyrainin,SoftwareType,DateUTC
2013-07-01 00:04:00,64.0,43.0,24.19,ENE,58,0.0,0.0,32,-99.99,,,-99.99,meteohub,2013-07-01 06:04:00,
2013-07-01 00:09:00,63.5,43.0,24.19,ENE,58,0.0,0.0,32,-99.99,,,-99.99,meteohub,2013-07-01 06:09:00,
2013-07-01 00:14:00,63.1,43.0,24.19,ENE,58,0.0,0.0,32,-99.99,,,-99.99,meteohub,2013-07-01 06:14:00,
2013-07-01 00:19:00,63.0,43.2,24.19,ENE,58,0.0,0.0,32,-99.99,,,-99.99,meteohub,2013-07-01 06:19:00,
2013-07-01 00:25:00,62.1,43.2,24.19,ENE,58,0.0,0.0,32,-99.99,,,-99.99,meteohub,2013-07-01 06:25:00,
2013-07-01 00:30:00,61.3,43.2,24.19,ENE,58,0.0,0.0,32,-99.99,,,-99.99,meteohub,2013-07-01 06:30:00,
2013-07-01 00:35:00,61.5,43.2,24.19,ENE,58,0.0,0.0,32,-99.99,,,-99.99,meteohub,2013-07-01 06:35:00,
2013-07-01 00:40:00,61.5,43.2,24.19,ENE,58,0.0,0.0,32,-99.99,,,-99.99,meteohub,2013-07-01 06:40:00,
2013-07-01 00:45:00,61.3,43.2,24.19,ENE,58,0.0,0.0,32,-99.99,,,-99.99,meteohub,2013-07-01 06:45:00,
2013-07-01 00:50:00,61.0,43.2,24.19,ENE,58,0.0,0.0,32,-99.99,,,-99.99,meteohub,2013-07-01 06:50:00,
2013-07-01 00:56:00,60.8,43.2,24.19,ENE,58,0.0,0.0,32,-99.99,,,-99.99,meteohub,2013-07-01 06:56:00,
2013-07-01 01:01:00,61.2,43.2,24.19,NE,47,4.0,0.0,32,-99.99,,,-99.99,meteohub,2013-07-01 07:01:00,
2013-07-01 01:06:00,61.2,43.2,24.19,NE,47,0.0,4.0,32,-99.99,,,-99.99,meteohub,2013-07-01 07:06:00,
2013-07-01 01:11:00,60.8,43.2,24.22,NE,47,0.0,4.0,32,-99.99,,,-99.99,meteohub,2013-07-01 07:11:00,
2013-07-01 01:16:00,60.6,43.2,24.22,NE,46,0.0,4.0,32,-99.99,,,-99.99,meteohub,2013-07-01 07:16:00,
2013-07-01 01:21:00,60.6,43.2,24.22,NE,47,0.0,0.0,32,-99.99,,,-99.99,meteohub,2013-07-01 07:21:00,
2013-07-01 01:26:00,60.6,43.2,24.22,NE,47,0.0,0.0,32,-99.99,,,-99.99,meteohub,2013-07-01 07:26:00,
2013-07-01 01:32:00,60.6,43.2,24.22,NE,49,3.0,0.0,32,-99.99,,,-99.99,meteohub,2013-07-01 07:32:00,
2013-07-01 01:37:00,61.0,43.2,24.22,NE,47,0.0,4.0,32,-99.99,,,-99.99,meteohub,2013-07-01 07:37:00,
2013-07-01 01:42:00,61.3,42.3,24.22,NE,41,0.0,4.0,31,-99.99,,,-99.99,meteohub,2013-07-01 07:42:00,
2013-07-01 01:47:00,61.3,42.3,24.22,NE,41,0.0,4.0,31,-99.99,,,-99.99,meteohub,2013-07-01 07:47:00,
2013-07-01 01:52:00,61.0,42.3,24.22,NE,41,0.0,0.0,31,-99.99,,,-99.99,meteohub,2013-07-01 07:52:00,
2013-07-01 01:57:00,60.1,42.3,24.22,NE,41,0.0,0.0,31,-99.99,,,-99.99,meteohub,2013-07-01 07:57:00,
2013-07-01 02:02:00,59.0,42.3,24.22,NE,41,0.0,0.0,31,-99.99,,,-99.99,meteohub,2013-07-01 08:02:00,
2013-07-01 02:08:00,59.0,42.1,24.22,NNE,21,3.0,5.0,31,-99.99,,,-99.99,meteohub,2013-07-01 08:08:00,
2013-07-01 02:13:00,59.9,42.1,24.22,NNE,18,3.0,5.0,31,-99.99,,,-99.99,meteohub,2013-07-01 08:13:00,
2013-07-01 02:18:00,60.8,41.9,24.22,WNW,290,0.0,5.0,31,-99.99,,,-99.99,meteohub,2013-07-01 08:18:00,
2013-07-01 02:23:00,61.9,41.9,24.22,NNE,12,4.0,5.0,31,-99.99,,,-99.99,meteohub,2013-07-01 08:23:00,
2013-07-01 02:28:00,62.8,41.9,24.22,ENE,64,2.0,5.0,31,-99.99,,,-99.99,meteohub,2013-07-01 08:28:00,
2013-07-01 02:33:00,63.1,41.9,24.22,NE,53,3.0,5.0,31,-99.99,,,-99.99,meteohub,2013-07-01 08:33:00,
2013-07-01 02:38:00,63.1,41.9,24.22,ENE,63,3.0,4.0,31,-99.99,,,-99.99,meteohub,2013-07-01 08:38:00,
2013-07-01 02:44:00,63.1,41.9,24.22,NE,46,0.0,4.0,31,-99.99,,,-99.99,meteohub,2013-07-01 08:44:00,
2013-07-01 02:49:00,63.0,41.9,24.22,NE,46,0.0,5.0,31,-99.99,,,-99.99,meteohub,2013-07-01 08:49:00,
2013-07-01 02:54:00,62.6,41.9,24.22,North,0,0.0,5.0,31,-99.99,,,-99.99,meteohub,2013-07-01 08:54:00,
2013-07-01 02:59:00,61.9,41.9,24.22,North,0,0.0,4.0,31,-99.99,,,-99.99,meteohub,2013-07-01 08:59:00,
2013-07-01 03:04:00,60.6,41.7,24.22,North,0,0.0,4.0,31,-99.99,,,-99.99,meteohub,2013-07-01 09:04:00,
2013-07-01 03:09:00,59.4,41.7,24.22,NNE,18,4.0,4.0,31,-99.99,,,-99.99,meteohub,2013-07-01 09:09:00,
2013-07-01 03:14:00,59.5,41.5,24.22,NE,45,4.0,4.0,31,-99.99,,,-99.99,meteohub,2013-07-01 09:14:00,
2013-07-01 03:20:00,60.4,41.5,24.22,ENE,63,4.0,5.0,31,-99.99,,,-99.99,meteohub,2013-07-01 09:20:00,
2013-07-01 03:25:00,61.5,41.4,24.22,NNE,14,3.0,6.0,31,-99.99,,,-99.99,meteohub,2013-07-01 09:25:00,
2013-07-01 03:30:00,62.1,41.4,24.22,North,357,6.0,6.0,31,-99.99,,,-99.99,meteohub,2013-07-01 09:30:00,
2013-07-01 03:35:00,62.6,41.2,24.22,North,7,5.0,7.0,31,-99.99,,,-99.99,meteohub,2013-07-01 09:35:00,
2013-07-01 03:40:00,62.6,41.0,24.22,NNE,21,5.0,8.0,31,-99.99,,,-99.99,meteohub,2013-07-01 09:40:00,
2013-07-01 03:45:00,62.8,41.0,24.22,East,79,5.0,8.0,31,-99.99,,,-99.99,meteohub,2013-07-01 09:45:00,
2013-07-01 03:51:00,62.4,41.0,24.22,ESE,115,4.0,6.0,31,-99.99,,,-99.99,meteohub,2013-07-01 09:51:00,
2013-07-01 03:56:00,61.9,41.0,24.22,WSW,239,3.0,6.0,31,-99.99,,,-99.99,meteohub,2013-07-01 09:56:00,
2013-07-01 04:01:00,61.3,41.0,24.22,NNW,338,4.0,6.0,31,-99.99,,,-99.99,meteohub,2013-07-01 10:01:00,
2013-07-01 04:06:00,60.6,41.0,24.22,ENE,74,3.0,6.0,31,-99.99,,,-99.99,meteohub,2013-07-01 10:06:00,
2013-07-01 04:11:00,60.4,41.0,24.22,NNE,24,6.0,6.0,31,-99.99,,,-99.99,meteohub,2013-07-01 10:11:00,
2013-07-01 04:16:00,60.3,40.8,24.22,North,10,5.0,6.0,31,-99.99,,,-99.99,meteohub,2013-07-01 10:16:00,
2013-07-01 04:22:00,60.4,40.8,24.22,East,85,4.0,6.0,31,-99.99,,,-99.99,meteohub,2013-07-01 10:22:00,
2013-07-01 04:27:00,60.4,40.8,24.22,East,79,3.0,6.0,31,-99.99,,,-99.99,meteohub,2013-07-01 10:27:00,
2013-07-01 04:32:00,60.4,40.6,24.22,SE,141,2.0,6.0,31,-99.99,,,-99.99,meteohub,2013-07-01 10:32:00,
2013-07-01 04:37:00,60.3,40.6,24.22,NNE,26,2.0,6.0,31,-99.99,,,-99.99,meteohub,2013-07-01 10:37:00,
2013-07-01 04:42:00,60.1,40.6,24.22,North,357,0.0,6.0,31,-99.99,,,-99.99,meteohub,2013-07-01 10:42:00,
2013-07-01 04:47:00,59.7,40.6,24.22,West,281,3.0,4.0,31,-99.99,,,-99.99,meteohub,2013-07-01 10:47:00,
2013-07-01 04:52:00,59.7,40.6,24.22,NW,311,2.0,4.0,31,-99.99,,,-99.99,meteohub,2013-07-01 10:52:00,
2013-07-01 04:57:00,59.7,40.6,24.22,North,0,0.0,4.0,31,-99.99,,,-99.99,meteohub,2013-07-01 10:57:00,
2013-07-01 05:02:00,58.6,40.6,24.22,North,0,0.0,4.0,31,-99.99,,,-99.99,meteohub,2013-07-01 11:02:00,
2013-07-01 05:07:00,57.6,40.6,24.22,North,0,0.0,3.0,31,-99.99,,,-99.99,meteohub,2013-07-01 11:07:00,
2013-07-01 05:12:00,57.2,40.6,24.22,North,0,0.0,0.0,31,-99.99,,,-99.99,meteohub,2013-07-01 11:12:00,
2013-07-01 05:17:00,57.0,40.6,24.22,WSW,243,0.0,0.0,31,-99.99,,,-99.99,meteohub,2013-07-01 11:17:00,
2013-07-01 05:22:00,56.5,41.4,24.22,WSW,243,0.0,0.0,32,-99.99,,,-99.99,meteohub,2013-07-01 11:22:00,
2013-07-01 05:27:00,53.6,41.4,24.22,SW,214,5.0,0.0,32,-99.99,,,-99.99,meteohub,2013-07-01 11:27:00,
2013-07-01 05:32:00,51.3,41.4,24.22,SSW,209,4.0,6.0,32,-99.99,,,-99.99,meteohub,2013-07-01 11:32:00,
2013-07-01 05:37:00,52.0,41.2,24.22,West,260,2.0,6.0,32,-99.99,,,-99.99,meteohub,2013-07-01 11:37:00,
2013-07-01 05:42:00,52.2,41.2,24.22,SSW,211,0.0,7.0,32,-99.99,,,-99.99,meteohub,2013-07-01 11:42:00,
2013-07-01 05:47:00,52.3,41.2,24.22,WSW,247,0.0,7.0,32,-99.99,,,-99.99,meteohub,2013-07-01 11:47:00,
2013-07-01 05:52:00,52.3,41.2,24.22,West,261,0.0,2.0,32,-99.99,,,-99.99,meteohub,2013-07-01 11:52:00,
2013-07-01 05:57:00,53.1,41.0,24.22,WNW,294,0.0,0.0,32,-99.99,,,-99.99,meteohub,2013-07-01 11:57:00,
2013-07-01 06:02:00,53.4,41.0,24.22,West,262,0.0,0.0,32,-99.99,,,-99.99,meteohub,2013-07-01 12:02:00,
2013-07-01 06:07:00,52.3,41.0,24.22,West,262,0.0,0.0,32,-99.99,,,-99.99,meteohub,2013-07-01 12:07:00,
2013-07-01 06:12:00,52.3,41.0,24.22,West,262,0.0,0.0,32,-99.99,,,-99.99,meteohub,2013-07-01 12:12:00,
2013-07-01 06:17:00,51.6,41.0,24.22,West,262,0.0,0.0,32,-99.99,,,-99.99,meteohub,2013-07-01 12:17:00,
2013-07-01 06:22:00,51.6,41.2,24.22,West,262,0.0,0.0,32,-99.99,,,-99.99,meteohub,2013-07-01 12:22:00,
2013-07-01 06:27:00,52.2,40.3,24.22,West,262,0.0,0.0,31,-99.99,,,-99.99,meteohub,2013-07-01 12:27:00,
2013-07-01 06:32:00,52.3,40.3,24.22,West,262,0.0,0.0,31,-99.99,,,-99.99,meteohub,2013-07-01 12:32:00,
2013-07-01 06:38:00,52.3,40.5,24.25,West,262,0.0,0.0,31,-99.99,,,-99.99,meteohub,2013-07-01 12:38:00,
2013-07-01 06:43:00,52.7,40.5,24.25,West,262,0.0,0.0,31,-99.99,,,-99.99,meteohub,2013-07-01 12:43:00,
2013-07-01 06:48:00,53.2,40.5,24.25,West,259,0.0,0.0,31,-99.99,,,-99.99,meteohub,2013-07-01 12:48:00,
2013-07-01 06:53:00,53.6,40.5,24.25,WNW,296,0.0,0.0,31,-99.99,,,-99.99,meteohub,2013-07-01 12:53:00,
2013-07-01 06:58:00,53.8,40.6,24.25,WNW,295,0.0,0.0,31,-99.99,,,-99.99,meteohub,2013-07-01 12:58:00,
2013-07-01 07:04:00,54.1,40.6,24.25,WNW,286,0.0,0.0,31,-99.99,,,-99.99,meteohub,2013-07-01 13:04:00,
2013-07-01 07:09:00,54.3,40.6,24.25,WNW,291,0.0,0.0,31,-99.99,,,-99.99,meteohub,2013-07-01 13:09:00,
2013-07-01 07:14:00,54.9,40.6,24.25,NW,307,0.0,0.0,31,-99.99,,,-99.99,meteohub,2013-07-01 13:14:00,
2013-07-01 07:19:00,55.8,40.8,24.25,NW,307,0.0,0.0,31,-99.99,,,-99.99,meteohub,2013-07-01 13:19:00,
2013-07-01 07:24:00,56.3,41.0,24.25,NW,307,0.0,0.0,31,-99.99,,,-99.99,meteohub,2013-07-01 13:24:00,
2013-07-01 07:29:00,57.0,41.0,24.25,NW,307,0.0,0.0,31,-99.99,,,-99.99,meteohub,2013-07-01 13:29:00,
2013-07-01 07:35:00,57.7,41.0,24.25,NW,307,0.0,0.0,31,-99.99,,,-99.99,meteohub,2013-07-01 13:35:00,
2013-07-01 07:40:00,58.3,41.2,24.25,NW,308,0.0,0.0,31,-99.99,,,-99.99,meteohub,2013-07-01 13:40:00,
2013-07-01 07:45:00,59.0,41.2,24.25,NW,308,0.0,0.0,31,-99.99,,,-99.99,meteohub,2013-07-01 13:45:00,
2013-07-01 07:50:00,59.5,41.4,24.25,NE,36,0.0,0.0,31,-99.99,,,-99.99,meteohub,2013-07-01 13:50:00,
2013-07-01 07:55:00,60.1,41.5,24.25,NE,36,0.0,0.0,31,-99.99,,,-99.99,meteohub,2013-07-01 13:55:00,
2013-07-01 08:01:00,60.8,41.5,24.25,North,357,0.0,0.0,31,-99.99,,,-99.99,meteohub,2013-07-01 14:01:00,
2013-07-01 08:06:00,61.5,41.7,24.25,NE,46,0.0,4.0,31,-99.99,,,-99.99,meteohub,2013-07-01 14:06:00,
2013-07-01 08:11:00,62.4,41.9,24.25,ENE,68,0.0,4.0,31,-99.99,,,-99.99,meteohub,2013-07-01 14:11:00,
2013-07-01 08:16:00,63.5,42.8,24.25,NE,56,0.0,4.0,32,-99.99,,,-99.99,meteohub,2013-07-01 14:16:00,
2013-07-01 08:21:00,64.4,42.8,24.25,ENE,72,2.0,4.0,32,-99.99,,,-99.99,meteohub,2013-07-01 14:21:00,
2013-07-01 08:26:00,65.5,42.8,24.25,NNE,23,3.0,4.0,32,-99.99,,,-99.99,meteohub,2013-07-01 14:26:00,
2013-07-01 08:31:00,66.4,43.0,24.25,ENE,68,2.0,4.0,32,-99.99,,,-99.99,meteohub,2013-07-01 14:31:00,
2013-07-01 08:37:00,67.3,43.0,24.25,East,93,6.0,6.0,32,-99.99,,,-99.99,meteohub,2013-07-01 14:37:00,
2013-07-01 08:42:00,68.5,43.0,24.25,ENE,66,6.0,6.0,32,-99.99,,,-99.99,meteohub,2013-07-01 14:42:00,
2013-07-01 08:47:00,69.4,43.0,24.25,NNE,22,4.0,8.0,32,-99.99,,,-99.99,meteohub,2013-07-01 14:47:00,
2013-07-01 08:52:00,70.3,43.9,24.25,ENE,69,4.0,8.0,33,-99.99,,,-99.99,meteohub,2013-07-01 14:52:00,
2013-07-01 08:57:00,70.9,43.0,24.25,NE,49,5.0,8.0,32,-99.99,,,-99.99,meteohub,2013-07-01 14:57:00,
2013-07-01 09:02:00,71.2,43.0,24.25,North,353,4.0,8.0,32,-99.99,,,-99.99,meteohub,2013-07-01 15:02:00,
2013-07-01 09:07:00,71.8,43.2,24.25,ESE,122,4.0,8.0,32,-99.99,,,-99.99,meteohub,2013-07-01 15:07:00,
2013-07-01 09:12:00,72.3,43.2,24.25,ENE,78,6.0,9.0,32,-99.99,,,-99.99,meteohub,2013-07-01 15:12:00,
2013-07-01 09:17:00,72.9,43.2,24.25,NE,54,3.0,9.0,32,-99.99,,,-99.99,meteohub,2013-07-01 15:17:00,
2013-07-01 09:22:00,73.4,43.3,24.25,WSW,250,5.0,9.0,32,-99.99,,,-99.99,meteohub,2013-07-01 15:22:00,
2013-07-01 09:27:00,73.9,43.3,24.25,ESE,116,3.0,10.0,32,-99.99,,,-99.99,meteohub,2013-07-01 15:27:00,
2013-07-01 09:32:00,74.3,43.5,24.25,NNE,20,5.0,10.0,32,-99.99,,,-99.99,meteohub,2013-07-01 15:32:00,
2013-07-01 09:37:00,74.5,43.5,24.25,NE,54,3.0,8.0,32,-99.99,,,-99.99,meteohub,2013-07-01 15:37:00,
2013-07-01 09:42:00,74.7,43.5,24.25,North,8,6.0,8.0,32,-99.99,,,-99.99,meteohub,2013-07-01 15:42:00,
2013-07-01 09:47:00,75.2,43.5,24.25,North,357,5.0,8.0,32,-99.99,,,-99.99,meteohub,2013-07-01 15:47:00,
2013-07-01 09:52:00,75.6,43.5,24.25,NE,53,4.0,8.0,32,-99.99,,,-99.99,meteohub,2013-07-01 15:52:00,
2013-07-01 09:57:00,76.1,43.7,24.25,NNW,343,6.0,6.0,32,-99.99,,,-99.99,meteohub,2013-07-01 15:57:00,
2013-07-01 10:02:00,76.3,43.7,24.25,NNE,14,4.0,8.0,32,-99.99,,,-99.99,meteohub,2013-07-01 16:02:00,
2013-07-01 10:07:00,76.5,43.7,24.25,East,81,4.0,8.0,32,-99.99,,,-99.99,meteohub,2013-07-01 16:07:00,
2013-07-01 10:12:00,76.6,43.7,24.25,NE,37,11.0,11.0,32,-99.99,,,-99.99,meteohub,2013-07-01 16:12:00,
2013-07-01 10:17:00,77.2,43.7,24.25,West,259,3.0,11.0,32,-99.99,,,-99.99,meteohub,2013-07-01 16:17:00,
2013-07-01 10:22:00,77.7,43.9,24.25,WSW,255,5.0,11.0,32,-99.99,,,-99.99,meteohub,2013-07-01 16:22:00,
2013-07-01 10:27:00,78.4,43.9,24.25,NNE,32,6.0,11.0,32,-99.99,,,-99.99,meteohub,2013-07-01 16:27:00,
2013-07-01 10:32:00,78.6,43.9,24.25,NNE,24,4.0,11.0,32,-99.99,,,-99.99,meteohub,2013-07-01 16:32:00,
2013-07-01 10:37:00,79.0,43.9,24.25,NNW,343,6.0,11.0,32,-99.99,,,-99.99,meteohub,2013-07-01 16:37:00,
2013-07-01 10:42:00,79.5,43.9,24.25,NE,40,3.0,11.0,32,-99.99,,,-99.99,meteohub,2013-07-01 16:42:00,
2013-07-01 10:47:00,79.9,43.7,24.25,NNE,19,5.0,9.0,32,-99.99,,,-99.99,meteohub,2013-07-01 16:47:00,
2013-07-01 10:52:00,80.2,43.7,24.25,NNE,25,5.0,9.0,32,-99.99,,,-99.99,meteohub,2013-07-01 16:52:00,
2013-07-01 10:57:00,80.8,43.7,24.25,NE,36,3.0,6.0,32,-99.99,,,-99.99,meteohub,2013-07-01 16:57:00,
2013-07-01 11:03:00,81.5,43.7,24.25,North,4,5.0,8.0,32,-99.99,,,-99.99,meteohub,2013-07-01 17:03:00,
2013-07-01 11:08:00,81.7,43.7,24.25,WNW,292,0.0,8.0,32,-99.99,,,-99.99,meteohub,2013-07-01 17:08:00,
2013-07-01 11:14:00,82.4,43.7,24.25,West,261,3.0,6.0,32,-99.99,,,-99.99,meteohub,2013-07-01 17:14:00,
2013-07-01 11:19:00,82.6,43.7,24.25,North,353,3.0,6.0,32,-99.99,,,-99.99,meteohub,2013-07-01 17:19:00,
2013-07-01 11:24:00,82.8,43.7,24.25,NE,34,10.0,10.0,32,-99.99,,,-99.99,meteohub,2013-07-01 17:24:00,
2013-07-01 11:29:00,82.8,43.7,24.25,West,274,5.0,12.0,32,-99.99,,,-99.99,meteohub,2013-07-01 17:29:00,
2013-07-01 11:34:00,82.9,43.7,24.25,NW,313,3.0,12.0,32,-99.99,,,-99.99,meteohub,2013-07-01 17:34:00,
2013-07-01 11:39:00,83.5,43.7,24.25,North,9,4.0,12.0,32,-99.99,,,-99.99,meteohub,2013-07-01 17:39:00,
2013-07-01 11:44:00,83.5,43.7,24.25,West,266,3.0,8.0,32,-99.99,,,-99.99,meteohub,2013-07-01 17:44:00,
2013-07-01 11:50:00,83.7,43.0,24.25,ENE,60,4.0,8.0,31,-99.99,,,-99.99,meteohub,2013-07-01 17:50:00,
2013-07-01 11:55:00,83.8,43.0,24.25,SSW,192,4.0,8.0,31,-99.99,,,-99.99,meteohub,2013-07-01 17:55:00,
2013-07-01 12:00:00,84.2,43.0,24.25,North,0,2.0,8.0,31,-99.99,,,-99.99,meteohub,2013-07-01 18:00:00,
2013-07-01 12:05:00,84.4,43.0,24.25,NE,48,8.0,8.0,31,-99.99,,,-99.99,meteohub,2013-07-01 18:05:00,
2013-07-01 12:10:00,84.7,43.0,24.25,NE,38,4.0,8.0,31,-99.99,,,-99.99,meteohub,2013-07-01 18:10:00,
2013-07-01 12:15:00,84.7,43.2,24.25,NE,41,9.0,11.0,31,-99.99,,,-99.99,meteohub,2013-07-01 18:15:00,
2013-07-01 12:20:00,85.5,43.2,24.25,NNE,28,8.0,11.0,31,-99.99,,,-99.99,meteohub,2013-07-01 18:20:00,
2013-07-01 12:26:00,85.8,43.2,24.25,NE,50,6.0,11.0,31,-99.99,,,-99.99,meteohub,2013-07-01 18:26:00,
2013-07-01 12:31:00,85.8,43.0,24.25,ENE,62,5.0,11.0,31,-99.99,,,-99.99,meteohub,2013-07-01 18:31:00,
2013-07-01 12:36:00,85.8,43.0,24.25,NNW,348,3.0,9.0,31,-99.99,,,-99.99,meteohub,2013-07-01 18:36:00,
2013-07-01 12:41:00,86.5,43.0,24.22,NE,49,7.0,11.0,31,-99.99,,,-99.99,meteohub,2013-07-01 18:41:00,
2013-07-01 12:46:00,86.7,43.0,24.22,NE,39,6.0,11.0,31,-99.99,,,-99.99,meteohub,2013-07-01 18:46:00,
2013-07-01 12:51:00,86.7,43.0,24.22,West,272,4.0,11.0,31,-99.99,,,-99.99,meteohub,2013-07-01 18:51:00,
2013-07-01 12:56:00,87.1,43.0,24.22,NE,37,3.0,8.0,31,-99.99,,,-99.99,meteohub,2013-07-01 18:56:00,
2013-07-01 13:02:00,87.6,43.0,24.22,NE,44,3.0,7.0,31,-99.99,,,-99.99,meteohub,2013-07-01 19:02:00,
2013-07-01 13:07:00,88.2,43.0,24.22,East,86,4.0,10.0,31,-99.99,,,-99.99,meteohub,2013-07-01 19:07:00,
2013-07-01 13:12:00,88.3,43.0,24.22,North,0,3.0,10.0,31,-99.99,,,-99.99,meteohub,2013-07-01 19:12:00,
2013-07-01 13:17:00,88.3,43.2,24.22,NNE,21,4.0,10.0,31,-99.99,,,-99.99,meteohub,2013-07-01 19:17:00,
2013-07-01 13:22:00,87.4,43.2,24.22,ENE,71,4.0,11.0,31,-99.99,,,-99.99,meteohub,2013-07-01 19:22:00,
2013-07-01 13:27:00,86.0,43.2,24.22,NE,45,4.0,11.0,31,-99.99,,,-99.99,meteohub,2013-07-01 19:27:00,
2013-07-01 13:33:00,86.4,43.2,24.22,NE,56,8.0,11.0,31,-99.99,,,-99.99,meteohub,2013-07-01 19:33:00,
2013-07-01 13:38:00,87.8,43.2,24.22,NNE,28,4.0,11.0,31,-99.99,,,-99.99,meteohub,2013-07-01 19:38:00,
2013-07-01 13:43:00,89.1,43.2,24.22,ENE,66,5.0,11.0,31,-99.99,,,-99.99,meteohub,2013-07-01 19:43:00,
2013-07-01 13:48:00,88.9,43.2,24.22,NNE,29,3.0,11.0,31,-99.99,,,-99.99,meteohub,2013-07-01 19:48:00,
2013-07-01 13:53:00,89.6,43.2,24.22,North,1,3.0,12.0,31,-99.99,,,-99.99,meteohub,2013-07-01 19:53:00,
2013-07-01 13:58:00,89.8,43.2,24.22,NNE,17,5.0,12.0,31,-99.99,,,-99.99,meteohub,2013-07-01 19:58:00,
2013-07-01 14:03:00,90.1,43.2,24.22,NE,53,10.0,10.0,31,-99.99,,,-99.99,meteohub,2013-07-01 20:03:00,
2013-07-01 14:09:00,90.1,43.2,24.22,NE,36,5.0,10.0,31,-99.99,,,-99.99,meteohub,2013-07-01 20:09:00,
2013-07-01 14:14:00,90.1,43.2,24.22,NE,47,8.0,10.0,31,-99.99,,,-99.99,meteohub,2013-07-01 20:14:00,
2013-07-01 14:19:00,90.0,43.3,24.22,NNW,334,8.0,10.0,31,-99.99,,,-99.99,meteohub,2013-07-01 20:19:00,
2013-07-01 14:24:00,89.8,43.3,24.22,WNW,299,6.0,11.0,31,-99.99,,,-99.99,meteohub,2013-07-01 20:24:00,
2013-07-01 14:29:00,89.2,43.3,24.22,ENE,74,4.0,11.0,31,-99.99,,,-99.99,meteohub,2013-07-01 20:29:00,
2013-07-01 14:34:00,90.5,43.3,24.22,WSW,245,6.0,10.0,31,-99.99,,,-99.99,meteohub,2013-07-01 20:34:00,
2013-07-01 14:39:00,93.0,43.3,24.22,WNW,285,5.0,12.0,31,-99.99,,,-99.99,meteohub,2013-07-01 20:39:00,
2013-07-01 14:45:00,92.8,43.3,24.22,NE,37,10.0,12.0,31,-99.99,,,-99.99,meteohub,2013-07-01 20:45:00,
2013-07-01 14:50:00,91.8,43.3,24.22,WNW,302,8.0,9.0,31,-99.99,,,-99.99,meteohub,2013-07-01 20:50:00,
2013-07-01 14:55:00,90.5,43.3,24.22,NE,34,3.0,10.0,31,-99.99,,,-99.99,meteohub,2013-07-01 20:55:00,
2013-07-01 15:00:00,89.4,43.3,24.22,WNW,288,3.0,10.0,31,-99.99,,,-99.99,meteohub,2013-07-01 21:00:00,
2013-07-01 15:05:00,88.9,43.3,24.22,NW,312,6.0,9.0,31,-99.99,,,-99.99,meteohub,2013-07-01 21:05:00,
2013-07-01 15:10:00,88.2,43.3,24.22,WNW,284,5.0,9.0,31,-99.99,,,-99.99,meteohub,2013-07-01 21:10:00,
2013-07-01 15:16:00,89.6,43.3,24.22,WNW,289,8.0,9.0,31,-99.99,,,-99.99,meteohub,2013-07-01 21:16:00,
2013-07-01 15:21:00,91.8,43.3,24.22,West,273,6.0,10.0,31,-99.99,,,-99.99,meteohub,2013-07-01 21:21:00,
2013-07-01 15:26:00,93.4,43.3,24.22,WSW,251,6.0,10.0,31,-99.99,,,-99.99,meteohub,2013-07-01 21:26:00,
2013-07-01 15:31:00,94.3,43.5,24.22,South,191,4.0,10.0,31,-99.99,,,-99.99,meteohub,2013-07-01 21:31:00,
2013-07-01 15:36:00,95.0,43.5,24.22,WNW,303,6.0,10.0,31,-99.99,,,-99.99,meteohub,2013-07-01 21:36:00,
2013-07-01 15:41:00,94.1,43.5,24.22,WNW,300,2.0,9.0,31,-99.99,,,-99.99,meteohub,2013-07-01 21:41:00,
2013-07-01 15:46:00,94.1,43.7,24.22,NNE,14,3.0,9.0,31,-99.99,,,-99.99,meteohub,2013-07-01 21:46:00,
2013-07-01 15:52:00,94.8,42.8,24.22,WNW,291,3.0,8.0,30,-99.99,,,-99.99,meteohub,2013-07-01 21:52:00,
2013-07-01 15:57:00,94.6,42.8,24.22,WNW,292,11.0,11.0,30,-99.99,,,-99.99,meteohub,2013-07-01 21:57:00,
2013-07-01 16:02:00,93.6,42.8,24.22,West,278,4.0,11.0,30,-99.99,,,-99.99,meteohub,2013-07-01 22:02:00,
2013-07-01 16:07:00,93.7,42.8,24.22,NW,321,5.0,11.0,30,-99.99,,,-99.99,meteohub,2013-07-01 22:07:00,
2013-07-01 16:12:00,93.6,42.8,24.22,West,272,8.0,11.0,30,-99.99,,,-99.99,meteohub,2013-07-01 22:12:00,
2013-07-01 16:17:00,93.4,42.1,24.22,WNW,293,6.0,11.0,29,-99.99,,,-99.99,meteohub,2013-07-01 22:17:00,
2013-07-01 16:22:00,94.3,42.8,24.22,NW,310,8.0,11.0,30,-99.99,,,-99.99,meteohub,2013-07-01 22:22:00,
2013-07-01 16:27:00,95.4,42.8,24.22,West,275,6.0,11.0,30,-99.99,,,-99.99,meteohub,2013-07-01 22:27:00,
2013-07-01 16:32:00,96.1,42.8,24.22,West,277,9.0,11.0,30,-99.99,,,-99.99,meteohub,2013-07-01 22:32:00,
2013-07-01 16:37:00,95.7,42.1,24.22,WNW,296,8.0,11.0,29,-99.99,,,-99.99,meteohub,2013-07-01 22:37:00,
2013-07-01 16:43:00,95.5,42.1,24.22,WNW,290,11.0,12.0,29,-99.99,,,-99.99,meteohub,2013-07-01 22:43:00,
2013-07-01 16:48:00,94.8,42.1,24.22,NW,304,6.0,13.0,29,-99.99,,,-99.99,meteohub,2013-07-01 22:48:00,
2013-07-01 16:53:00,94.6,42.3,24.22,WNW,292,3.0,13.0,29,-99.99,,,-99.99,meteohub,2013-07-01 22:53:00,
2013-07-01 16:58:00,95.9,41.4,24.22,NW,323,9.0,13.0,28,-99.99,,,-99.99,meteohub,2013-07-01 22:58:00,
2013-07-01 17:03:00,95.7,41.4,24.22,WNW,302,4.0,13.0,28,-99.99,,,-99.99,meteohub,2013-07-01 23:03:00,
2013-07-01 17:09:00,95.0,41.4,24.19,NW,306,8.0,13.0,28,-99.99,,,-99.99,meteohub,2013-07-01 23:09:00,
2013-07-01 17:14:00,95.5,41.4,24.19,WSW,252,4.0,13.0,28,-99.99,,,-99.99,meteohub,2013-07-01 23:14:00,
2013-07-01 17:19:00,96.3,40.5,24.19,West,271,8.0,13.0,27,-99.99,,,-99.99,meteohub,2013-07-01 23:19:00,
2013-07-01 17:24:00,96.3,40.5,24.19,WNW,295,9.0,13.0,27,-99.99,,,-99.99,meteohub,2013-07-01 23:24:00,
2013-07-01 17:29:00,96.1,39.6,24.19,WNW,296,8.0,12.0,26,-99.99,,,-99.99,meteohub,2013-07-01 23:29:00,
2013-07-01 17:34:00,95.9,40.6,24.19,WNW,300,8.0,12.0,27,-99.99,,,-99.99,meteohub,2013-07-01 23:34:00,
2013-07-01 17:40:00,96.1,39.6,24.19,WNW,297,4.0,12.0,26,-99.99,,,-99.99,meteohub,2013-07-01 23:40:00,
2013-07-01 17:45:00,95.9,39.6,24.19,NW,311,6.0,12.0,26,-99.99,,,-99.99,meteohub,2013-07-01 23:45:00,
2013-07-01 17:50:00,94.6,39.7,24.19,NW,309,7.0,11.0,26,-99.99,,,-99.99,meteohub,2013-07-01 23:50:00,
2013-07-01 17:55:00,94.1,39.7,24.19,NW,305,8.0,12.0,26,-99.99,,,-99.99,meteohub,2013-07-01 23:55:00,
2013-07-01 18:00:00,93.9,39.7,24.19,NW,304,4.0,10.0,26,-99.99,,,-99.99,meteohub,2013-07-02 00:00:00,
2013-07-01 18:05:00,93.7,39.7,24.19,West,274,6.0,10.0,26,-99.99,,,-99.99,meteohub,2013-07-02 00:05:00,
2013-07-01 18:10:00,93.9,39.7,24.19,WNW,294,5.0,8.0,26,-99.99,,,-99.99,meteohub,2013-07-02 00:10:00,
2013-07-01 18:16:00,93.0,39.7,24.19,West,270,6.0,8.0,26,-99.99,,,-99.99,meteohub,2013-07-02 00:16:00,
2013-07-01 18:21:00,91.8,39.7,24.19,WNW,286,5.0,8.0,26,-99.99,,,-99.99,meteohub,2013-07-02 00:21:00,
2013-07-01 18:26:00,90.5,39.7,24.19,NW,307,5.0,8.0,26,-99.99,,,-99.99,meteohub,2013-07-02 00:26:00,
2013-07-01 18:31:00,89.2,39.7,24.19,WNW,290,4.0,8.0,26,-99.99,,,-99.99,meteohub,2013-07-02 00:31:00,
2013-07-01 18:36:00,89.2,39.7,24.19,WNW,291,3.0,8.0,26,-99.99,,,-99.99,meteohub,2013-07-02 00:36:00,
2013-07-01 18:41:00,89.8,38.8,24.19,NW,309,8.0,8.0,25,-99.99,,,-99.99,meteohub,2013-07-02 00:41:00,
2013-07-01 18:46:00,90.1,39.7,24.19,WNW,301,8.0,8.0,26,-99.99,,,-99.99,meteohub,2013-07-02 00:46:00,
2013-07-01 18:52:00,90.3,39.9,24.19,NW,312,6.0,8.0,26,-99.99,,,-99.99,meteohub,2013-07-02 00:52:00,
2013-07-01 18:57:00,90.5,39.9,24.19,NW,312,6.0,8.0,26,-99.99,,,-99.99,meteohub,2013-07-02 00:57:00,
2013-07-01 19:02:00,91.0,39.9,24.19,WNW,296,5.0,8.0,26,-99.99,,,-99.99,meteohub,2013-07-02 01:02:00,
2013-07-01 19:07:00,90.9,39.9,24.19,WNW,299,5.0,8.0,26,-99.99,,,-99.99,meteohub,2013-07-02 01:07:00,
2013-07-01 19:12:00,90.3,39.0,24.19,NW,315,6.0,8.0,25,-99.99,,,-99.99,meteohub,2013-07-02 01:12:00,
2013-07-01 19:17:00,89.2,39.0,24.19,NW,307,5.0,8.0,25,-99.99,,,-99.99,meteohub,2013-07-02 01:17:00,
2013-07-01 19:22:00,88.5,39.0,24.19,WNW,299,5.0,6.0,25,-99.99,,,-99.99,meteohub,2013-07-02 01:22:00,
2013-07-01 19:27:00,87.6,39.0,24.19,WNW,300,3.0,6.0,25,-99.99,,,-99.99,meteohub,2013-07-02 01:27:00,
2013-07-01 19:32:00,86.7,39.0,24.19,WNW,298,4.0,6.0,25,-99.99,,,-99.99,meteohub,2013-07-02 01:32:00,
2013-07-01 19:37:00,85.6,39.0,24.19,WNW,291,4.0,6.0,25,-99.99,,,-99.99,meteohub,2013-07-02 01:37:00,
2013-07-01 19:42:00,84.7,39.0,24.19,WNW,283,4.0,5.0,25,-99.99,,,-99.99,meteohub,2013-07-02 01:42:00,
2013-07-01 19:47:00,84.0,39.9,24.19,WNW,287,4.0,5.0,26,-99.99,,,-99.99,meteohub,2013-07-02 01:47:00,
2013-07-01 19:52:00,83.7,39.9,24.19,WNW,291,3.0,5.0,26,-99.99,,,-99.99,meteohub,2013-07-02 01:52:00,
2013-07-01 19:57:00,82.2,39.9,24.19,WNW,293,3.0,5.0,26,-99.99,,,-99.99,meteohub,2013-07-02 01:57:00,
2013-07-01 20:02:00,81.5,39.9,24.19,West,270,4.0,4.0,26,-99.99,,,-99.99,meteohub,2013-07-02 02:02:00,
2013-07-01 20:07:00,81.5,39.9,24.19,WNW,299,0.0,4.0,26,-99.99,,,-99.99,meteohub,2013-07-02 02:07:00,
2013-07-01 20:12:00,79.9,41.0,24.19,WNW,299,0.0,4.0,27,-99.99,,,-99.99,meteohub,2013-07-02 02:12:00,
2013-07-01 20:17:00,77.7,41.0,24.19,WNW,299,0.0,4.0,27,-99.99,,,-99.99,meteohub,2013-07-02 02:17:00,
2013-07-01 20:22:00,76.6,41.0,24.19,WNW,299,0.0,3.0,27,-99.99,,,-99.99,meteohub,2013-07-02 02:22:00,
2013-07-01 20:27:00,75.7,41.0,24.19,WNW,299,0.0,0.0,27,-99.99,,,-99.99,meteohub,2013-07-02 02:27:00,
2013-07-01 20:32:00,75.0,41.0,24.19,WNW,299,0.0,0.0,27,-99.99,,,-99.99,meteohub,2013-07-02 02:32:00,
2013-07-01 20:37:00,73.9,40.8,24.22,ENE,57,5.0,0.0,27,-99.99,,,-99.99,meteohub,2013-07-02 02:37:00,
2013-07-01 20:42:00,73.6,41.7,24.22,NE,56,0.0,7.0,28,-99.99,,,-99.99,meteohub,2013-07-02 02:42:00,
2013-07-01 20:47:00,73.9,41.7,24.22,NE,56,0.0,7.0,28,-99.99,,,-99.99,meteohub,2013-07-02 02:47:00,
2013-07-01 20:52:00,73.9,41.7,24.19,NE,56,0.0,7.0,28,-99.99,,,-99.99,meteohub,2013-07-02 02:52:00,
2013-07-01 20:57:00,73.0,41.7,24.19,NE,56,0.0,0.0,28,-99.99,,,-99.99,meteohub,2013-07-02 02:57:00,
2013-07-01 21:02:00,72.3,41.7,24.19,NE,56,0.0,0.0,28,-99.99,,,-99.99,meteohub,2013-07-02 03:02:00,
2013-07-01 21:07:00,72.1,41.7,24.19,NE,56,0.0,0.0,28,-99.99,,,-99.99,meteohub,2013-07-02 03:07:00,
2013-07-01 21:12:00,72.0,41.7,24.19,NE,56,0.0,0.0,28,-99.99,,,-99.99,meteohub,2013-07-02 03:12:00,
2013-07-01 21:17:00,72.3,41.7,24.19,NE,56,0.0,0.0,28,-99.99,,,-99.99,meteohub,2013-07-02 03:17:00,
2013-07-01 21:22:00,72.0,41.7,24.19,NE,56,0.0,0.0,28,-99.99,,,-99.99,meteohub,2013-07-02 03:22:00,
2013-07-01 21:27:00,71.4,41.7,24.19,NE,56,0.0,0.0,28,-99.99,,,-99.99,meteohub,2013-07-02 03:27:00,
2013-07-01 21:32:00,70.7,41.7,24.19,NE,56,0.0,0.0,28,-99.99,,,-99.99,meteohub,2013-07-02 03:32:00,
2013-07-01 21:37:00,69.6,41.5,24.19,NE,56,0.0,0.0,28,-99.99,,,-99.99,meteohub,2013-07-02 03:37:00,
2013-07-01 21:42:00,69.8,41.5,24.19,NE,56,0.0,0.0,28,-99.99,,,-99.99,meteohub,2013-07-02 03:42:00,
2013-07-01 21:47:00,70.3,41.5,24.19,NE,56,0.0,0.0,28,-99.99,,,-99.99,meteohub,2013-07-02 03:47:00,
2013-07-01 21:52:00,70.7,41.5,24.22,NE,56,0.0,0.0,28,-99.99,,,-99.99,meteohub,2013-07-02 03:52:00,
2013-07-01 21:57:00,70.2,42.3,24.22,NE,56,0.0,0.0,29,-99.99,,,-99.99,meteohub,2013-07-02 03:57:00,
2013-07-01 22:01:00,66.7,42.3,24.22,SSW,208,3.0,0.0,29,-99.99,,,-99.99,meteohub,2013-07-02 04:01:00,
2013-07-01 22:02:00,65.8,42.3,24.22,SSW,208,4.0,0.0,29,-99.99,,,-99.99,meteohub,2013-07-02 04:02:00,
2013-07-01 22:05:00,64.8,42.3,24.22,SSW,208,2.0,5.0,29,-99.99,,,-99.99,meteohub,2013-07-02 04:05:00,
2013-07-01 22:10:00,65.8,42.3,24.22,SSW,208,3.0,5.0,29,-99.99,,,-99.99,meteohub,2013-07-02 04:10:00,
2013-07-01 22:15:00,67.3,42.3,24.22,SSW,208,0.0,4.0,29,-99.99,,,-99.99,meteohub,2013-07-02 04:15:00,
2013-07-01 22:20:00,68.0,42.3,24.22,SSW,208,0.0,4.0,29,-99.99,,,-99.99,meteohub,2013-07-02 04:20:00,
2013-07-01 22:26:00,67.8,42.3,24.22,SSW,208,0.0,4.0,29,-99.99,,,-99.99,meteohub,2013-07-02 04:26:00,
2013-07-01 22:31:00,67.3,42.3,24.22,SSW,208,0.0,2.0,29,-99.99,,,-99.99,meteohub,2013-07-02 04:31:00,
2013-07-01 22:36:00,66.6,42.3,24.22,SSW,208,0.0,0.0,29,-99.99,,,-99.99,meteohub,2013-07-02 04:36:00,
2013-07-01 22:41:00,66.6,42.1,24.22,SW,236,4.0,4.0,29,-99.99,,,-99.99,meteohub,2013-07-02 04:41:00,
2013-07-01 22:46:00,66.0,42.1,24.22,SW,236,0.0,5.0,29,-99.99,,,-99.99,meteohub,2013-07-02 04:46:00,
2013-07-01 22:52:00,65.7,42.1,24.22,SW,236,0.0,5.0,29,-99.99,,,-99.99,meteohub,2013-07-02 04:52:00,
2013-07-01 22:57:00,65.8,43.0,24.22,WNW,287,0.0,5.0,30,-99.99,,,-99.99,meteohub,2013-07-02 04:57:00,
2013-07-01 23:02:00,66.4,42.8,24.22,WNW,287,0.0,0.0,30,-99.99,,,-99.99,meteohub,2013-07-02 05:02:00,
2013-07-01 23:07:00,66.6,42.8,24.22,West,281,0.0,0.0,30,-99.99,,,-99.99,meteohub,2013-07-02 05:07:00,
2013-07-01 23:12:00,66.4,42.8,24.22,WNW,284,0.0,0.0,30,-99.99,,,-99.99,meteohub,2013-07-02 05:12:00,
2013-07-01 23:17:00,65.8,42.8,24.22,WNW,293,0.0,4.0,30,-99.99,,,-99.99,meteohub,2013-07-02 05:17:00,
2013-07-01 23:23:00,65.5,42.8,24.22,North,6,0.0,4.0,30,-99.99,,,-99.99,meteohub,2013-07-02 05:23:00,
2013-07-01 23:28:00,64.9,42.1,24.22,North,6,0.0,4.0,29,-99.99,,,-99.99,meteohub,2013-07-02 05:28:00,
2013-07-01 23:33:00,65.1,42.1,24.22,North,6,0.0,0.0,29,-99.99,,,-99.99,meteohub,2013-07-02 05:33:00,
2013-07-01 23:38:00,65.1,42.1,24.22,North,6,0.0,0.0,29,-99.99,,,-99.99,meteohub,2013-07-02 05:38:00,
2013-07-01 23:43:00,64.9,41.9,24.22,North,6,0.0,0.0,29,-99.99,,,-99.99,meteohub,2013-07-02 05:43:00,
2013-07-01 23:48:00,63.1,42.8,24.22,SW,217,0.0,0.0,30,-99.99,,,-99.99,meteohub,2013-07-02 05:48:00,
2013-07-01 23:53:00,62.4,42.8,24.22,NW,312,0.0,0.0,30,-99.99,,,-99.99,meteohub,2013-07-02 05:53:00,
2013-07-01 23:59:00,62.1,42.6,24.22,NW,312,0.0,0.0,30,-99.99,,,-99.99,meteohub,2013-07-02 05:59:00,